Starlink 1059

decayed
NORAD ID: 44764 Int'l Des: 2019-074 Owner: SPXS Country: US Constellation: starlink
LEOCIRCULAR

关于 Starlink 1059

正在加载描述...

高度历史

Altitude vs Time

uPlot chart will show altitude changes over time

两行轨道根数

1 44764U 19074BD 24343.03331609 .21779487 12547-4 33037-3 0 9994
2 44764 53.0451 313.3929 0003026 191.5173 286.9049 16.48478774281851
Epoch: Dec 8, 2024 • Age: 8036 hours

当前状态

Position data unavailable
发射日期 Nov 11, 2019
运行时间 5.9 years
衰减日期 Dec 8, 2024
类型 internet

技术详情

分类 Payload
质量 260.00 kg
干质量 248.00 kg
总质量 260.00 kg
长度 0.20 m
直径 2.80 m
跨度 9.00 m
形状 Box + pan
制造商 SPXS
平台类型 Starlink
阶段状态 Unknown Transfer Status
所有者/国家 SPXS/US

大型星座

Loading constellations...